GW3481 Weather Reports


time (UTC)temp
F
wind
direction
speed
knots
gust
knots
rain 1hr
in
rain 24hr
in
rain mn
in
humidity
%
barometer
mb
20260504220019 79 235 13.9 20.9 0.00 0.00 0.00 42 1009.0
20260504214525 79 260 12.2 22.6 0.00 0.00 0.00 42 1009.0
20260504213033 79 261 8.7 19.1 0.00 0.00 0.00 42 1008.6
20260504211524 79 263 13.0 23.5 0.00 0.00 0.00 42 1008.9
20260504210022 79 263 15.6 27.8 0.00 0.00 0.00 41 1009.1
20260504204534 78 261 18.2 27.8 0.00 0.00 0.00 39 1009.3
20260504203017 78 234 13.9 26.9 0.00 0.00 0.00 41 1009.4
20260504201503 78 259 17.4 26.1 0.00 0.00 0.00 40 1009.7
20260504200003 78 259 16.5 28.7 0.00 0.00 0.00 41 1009.7
20260504194507 78 256 20.0 27.8 0.00 0.00 0.00 40 1009.7
20260504193007 78 259 19.1 29.5 0.00 0.00 0.00 40 1009.9
20260504191512 78 252 20.0 29.5 0.00 0.00 0.00 39 1010.1
20260504190003 78 273 13.0 24.3 0.00 0.00 0.00 41 1010.3
20260504184504 78 286 13.0 23.5 0.00 0.00 0.00 39 1010.7
20260504183008 77 265 16.5 25.2 0.00 0.00 0.00 38 1011.0
20260504181514 77 273 19.1 28.7 0.00 0.00 0.00 38 1010.9
20260504180018 78 279 8.7 21.7 0.00 0.00 0.00 40 1011.3
20260504174504 77 276 16.5 24.3 0.00 0.00 0.00 38 1011.2
20260504173003 77 256 16.5 27.8 0.00 0.00 0.00 39 1011.4
20260504171510 77 252 13.9 26.9 0.00 0.00 0.00 42 1011.5
20260504081508 62 255 6.1 10.4 0.00 0.00 0.00 69 1012.5
20260504044535 63 259 5.2 8.7 0.00 0.00 0.00 67 1014.5
20260504043021 63 255 4.3 8.7 0.00 0.00 0.00 66 1014.6
20260504041518 64 250 5.2 10.4 0.00 0.00 0.00 65 1014.6
20260504040024 64 258 6.1 9.6 0.00 0.00 0.00 64 1014.6
20260504034525 65 252 7.8 10.4 0.00 0.00 0.00 63 1014.7
20260504033026 65 268 7.8 12.2 0.00 0.00 0.00 62 1014.6
20260504031514 66 265 7.8 11.3 0.00 0.00 0.00 61 1014.6
20260504030022 66 242 7.8 11.3 0.00 0.00 0.00 61 1014.6
20260504024523 66 250 6.1 11.3 0.00 0.00 0.00 60 1014.6
20260504023025 66 259 7.8 11.3 0.00 0.00 0.00 59 1014.6
20260504021526 66 252 6.1 10.4 0.00 0.00 0.00 60 1014.5
20260504020018 66 238 3.5 7.8 0.00 0.00 0.00 59 1014.5
20260504014523 67 240 4.3 7.8 0.00 0.00 0.00 58 1014.3
20260504013030 67 243 3.5 7.0 0.00 0.00 0.00 57 1014.3
20260504011527 68 242 3.5 7.8 0.00 0.00 0.00 56 1014.3
20260504010015 68 239 3.5 7.8 0.00 0.00 0.00 54 1014.2
20260504004519 69 238 6.1 10.4 0.00 0.00 0.00 53 1014.1
20260504003023 70 217 5.2 10.4 0.00 0.00 0.00 52 1014.3
20260504001508 70 244 7.0 11.3 0.00 0.00 0.00 50 1014.6
20260504000012 71 256 6.1 9.6 0.00 0.00 0.00 49 1014.6
20260503234516 72 232 7.0 12.2 0.00 0.00 0.00 47 1014.8
20260503233021 72 250 7.0 13.9 0.00 0.00 0.00 45 1015.1
20260503231524 72 260 6.1 11.3 0.00 0.00 0.00 45 1015.3
20260503230010 72 260 6.1 12.2 0.00 0.00 0.00 42 1015.3
20260503224514 72 259 10.4 14.8 0.00 0.00 0.00 41 1015.3
20260503223020 73 271 7.0 13.9 0.00 0.00 0.00 40 1015.4
20260503221525 72 252 9.6 18.2 0.00 0.00 0.00 40 1015.5